Location: ???????
(55.3754°N, 39.3545°E)
Time: 18:04:27
(UTC+00:00)

COSMOS 2428 - Pass Details

Date: 14 April 2026
Orbit: 844 x 855 km, 70.9° (Epoch: 16 May)

Event Time Altitude Azimuth Distance (km) Brightness Sun altitude
Rises 18:55:48 0° 230° (SW) 3,419 5.8 -18.1°
Reaches altitude 10° 18:58:18 10° 235° (SW) 2,486 5.2 -18.4°
Maximum altitude 19:03:54 54° 312° (NW) 1,034 3.5 -18.8°
Drops below altitude 10° 19:09:32 10° 30° (NNE) 2,499 5.5 -19.3°
Sets 19:12:04 0° 35° (NE) 3,437 6.1 -19.5°
